DB5ZQ Weather Reports


time (UTC)temp
C
wind
direction
speed
KPH
gust
KPH
rain 1hr
cm
rain 24hr
cm
rain mn
cm
humidity
%
barometer
mb
20260508113652 22 104 0.0 6.4 0.00 0.00 0.00 38 1014.0
20260508113152 22 151 1.6 8.0 0.00 0.00 0.00 41 1013.9
20260508112651 21 262 6.4 8.0 0.00 0.00 0.00 42 1014.0
20260508112151 21 77 0.0 6.4 0.00 0.00 0.00 41 1014.0
20260508111651 21 142 3.2 4.8 0.00 0.00 0.00 44 1014.0
20260508111151 21 227 0.0 4.8 0.00 0.00 0.00 48 1014.0
20260508110650 20 293 1.6 4.8 0.00 0.00 0.00 49 1014.1
20260508110150 20 236 0.0 8.0 0.00 0.00 0.00 49 1014.1
20260508105650 19 284 1.6 6.4 0.00 0.00 0.00 52 1014.1
20260508105149 19 104 0.0 3.2 0.00 0.00 0.00 54 1014.2
20260508104649 18 21 0.0 11.3 0.00 0.00 0.00 55 1014.2
20260508104149 18 255 0.0 6.4 0.00 0.00 0.00 56 1014.2
20260508103649 18 279 0.0 4.8 0.00 0.00 0.00 57 1014.2
20260508103148 18 277 4.8 8.0 0.00 0.00 0.00 56 1014.3
20260508102648 18 57 1.6 9.7 0.00 0.00 0.00 59 1014.4
20260508102148 17 338 0.0 6.4 0.00 0.00 0.00 59 1014.3
20260508101647 17 327 1.6 3.2 0.00 0.00 0.00 58 1014.4
20260508101147 17 116 3.2 6.4 0.00 0.00 0.00 59 1014.5
20260508100647 17 286 0.0 8.0 0.00 0.00 0.00 61 1014.5
20260508100147 17 170 0.0 8.0 0.00 0.00 0.00 62 1014.6
20260508095646 16 247 3.2 6.4 0.00 0.00 0.00 63 1014.5
20260508095146 16 286 1.6 6.4 0.00 0.00 0.00 62 1014.5
20260508094646 16 288 4.8 9.7 0.00 0.00 0.00 62 1014.5
20260508094145 16 271 0.0 6.4 0.00 0.00 0.00 62 1014.5
20260508093645 16 203 1.6 4.8 0.00 0.00 0.00 63 1014.5
20260508093145 16 174 0.0 11.3 0.00 0.00 0.00 63 1014.6
20260508092645 16 150 8.0 8.0 0.00 0.00 0.00 63 1014.6
20260508092144 16 237 1.6 9.7 0.00 0.00 0.00 63 1014.7
20260508091644 16 275 0.0 9.7 0.00 0.00 0.00 64 1014.6
20260508091144 16 229 0.0 3.2 0.00 0.00 0.00 65 1014.6
20260508090643 15 161 0.0 4.8 0.00 0.00 0.00 66 1014.7
20260508090143 15 226 0.0 9.7 0.00 0.00 0.00 66 1014.7
20260508085643 15 206 0.0 6.4 0.00 0.00 0.00 65 1014.6
20260508085143 15 157 0.0 3.2 0.00 0.00 0.00 66 1014.7
20260508084642 15 232 0.0 6.4 0.00 0.00 0.00 66 1014.7
20260508084142 15 233 3.2 11.3 0.00 0.00 0.00 66 1014.7
20260508083642 15 226 1.6 6.4 0.00 0.00 0.00 67 1014.8
20260508083141 15 293 0.0 4.8 0.00 0.00 0.00 68 1014.8
20260508082641 15 254 0.0 6.4 0.00 0.00 0.00 68 1014.8
20260508082141 14 192 1.6 8.0 0.00 0.00 0.00 69 1014.8
20260508081641 14 264 0.0 3.2 0.00 0.00 0.00 69 1014.8
20260508081140 14 268 1.6 8.0 0.00 0.00 0.00 70 1014.8
20260508080640 14 153 0.0 6.4 0.00 0.00 0.00 70 1014.9
20260508080140 13 279 3.2 6.4 0.00 0.00 0.00 70 1014.8
20260508075640 13 227 0.0 11.3 0.00 0.00 0.00 71 1014.9
20260508075139 13 241 4.8 11.3 0.00 0.00 0.00 72 1014.9
20260508074639 13 232 1.6 4.8 0.00 0.00 0.00 73 1014.9
20260508074139 13 254 0.0 9.7 0.00 0.00 0.00 73 1014.9
20260508073638 13 330 0.0 4.8 0.00 0.00 0.00 73 1014.9
20260508073138 13 104 0.0 6.4 0.00 0.00 0.00 73 1014.8
20260508072638 13 192 1.6 6.4 0.00 0.00 0.00 73 1014.8
20260508072138 13 201 0.0 8.0 0.00 0.00 0.00 74 1014.9
20260508071637 13 120 0.0 8.0 0.00 0.00 0.00 74 1014.8
20260508071137 13 279 4.8 6.4 0.00 0.00 0.00 75 1014.8
20260508070637 12 158 0.0 3.2 0.00 0.00 0.00 75 1014.7
20260508070136 12 258 1.6 8.0 0.00 0.00 0.00 75 1014.8
20260508065636 12 111 0.0 8.0 0.00 0.00 0.00 76 1014.8
20260508065136 12 295 0.0 6.4 0.00 0.00 0.00 76 1014.8
20260508064636 12 181 0.0 4.8 0.00 0.00 0.00 76 1014.7
20260508064135 12 7 0.0 1.6 0.00 0.00 0.00 77 1014.7
20260508063635 12 223 0.0 0.0 0.00 0.00 0.00 77 1014.6
20260508063135 12 223 0.0 6.4 0.00 0.00 0.00 77 1014.6
20260508062634 11 352 0.0 3.2 0.00 0.00 0.00 78 1014.6
20260508062134 11 303 0.0 3.2 0.00 0.00 0.00 78 1014.5
20260508061634 11 135 0.0 1.6 0.00 0.00 0.00 78 1014.4
20260508061134 11 246 0.0 1.6 0.00 0.00 0.00 78 1014.4
20260508060633 11 167 0.0 3.2 0.00 0.00 0.00 78 1014.3
20260508060133 11 330 0.0 4.8 0.00 0.00 0.00 78 1014.3
20260508055633 11 147 4.8 4.8 0.00 0.00 0.00 78 1014.2
20260508055132 11 248 0.0 0.0 0.00 0.00 0.00 78 1014.2
20260508054632 11 248 0.0 1.6 0.00 0.00 0.00 78 1014.2
20260508054132 11 215 0.0 6.4 0.00 0.00 0.00 78 1014.2
20260508053632 11 233 0.0 3.2 0.00 0.00 0.00 78 1014.1
20260508053131 11 225 1.6 3.2 0.00 0.00 0.00 77 1014.0
20260508052631 11 239 0.0 1.6 0.00 0.00 0.00 77 1014.1
20260508052131 11 261 0.0 3.2 0.00 0.00 0.00 78 1014.0
20260508051630 11 156 0.0 0.0 0.00 0.00 0.00 77 1014.0
20260508051130 11 156 0.0 0.0 0.00 0.00 0.00 77 1014.0
20260508050630 11 156 0.0 0.0 0.00 0.00 0.00 77 1013.9
20260508050130 11 156 0.0 0.0 0.00 0.00 0.00 77 1013.9
20260508045629 10 156 0.0 0.0 0.00 0.00 0.00 77 1014.0
20260508045129 10 156 0.0 0.0 0.00 0.00 0.00 77 1013.9
20260508044629 11 156 0.0 0.0 0.00 0.00 0.00 77 1013.8
20260508044128 10 156 0.0 0.0 0.00 0.00 0.00 77 1013.7
20260508043628 10 156 0.0 0.0 0.00 0.00 0.00 77 1013.7
20260508043128 10 156 0.0 0.0 0.00 0.00 0.00 77 1013.7
20260508042628 10 156 0.0 0.0 0.00 0.00 0.00 77 1013.7
20260508042127 10 156 0.0 0.0 0.00 0.00 0.00 77 1013.7
20260508041627 10 156 0.0 0.0 0.00 0.00 0.00 77 1013.6
20260508041127 10 156 0.0 0.0 0.00 0.00 0.00 77 1013.6
20260508040626 10 156 0.0 0.0 0.00 0.00 0.00 77 1013.6
20260508040126 10 156 0.0 0.0 0.00 0.00 0.00 77 1013.6
20260508035626 11 156 0.0 0.0 0.00 0.00 0.00 77 1013.6
20260508035126 11 156 0.0 0.0 0.00 0.00 0.00 77 1013.5
20260508034625 11 156 0.0 0.0 0.00 0.00 0.00 77 1013.5
20260508034125 11 156 0.0 0.0 0.00 0.00 0.00 77 1013.5
20260508033625 11 156 0.0 0.0 0.00 0.00 0.00 77 1013.5
20260508033124 11 156 0.0 0.0 0.00 0.00 0.00 77 1013.5
20260508032624 11 156 0.0 0.0 0.00 0.00 0.00 77 1013.5
20260508032124 11 156 0.0 0.0 0.00 0.00 0.00 77 1013.5
20260508031624 11 156 0.0 0.0 0.00 0.00 0.00 77 1013.5
20260508031125 11 156 0.0 0.0 0.00 0.00 0.00 77 1013.6
20260508030623 11 156 0.0 0.0 0.00 0.00 0.00 77 1013.4
20260508030123 11 156 0.0 0.0 0.00 0.00 0.00 76 1013.4
20260508025622 11 156 0.0 0.0 0.00 0.00 0.00 77 1013.4
20260508025122 11 156 0.0 0.0 0.00 0.00 0.00 77 1013.4
20260508024622 11 156 0.0 0.0 0.00 0.00 0.00 76 1013.3
20260508024122 11 156 0.0 0.0 0.00 0.00 0.00 76 1013.4
20260508023621 11 156 0.0 0.0 0.00 0.00 0.00 76 1013.4
20260508023121 11 156 0.0 0.0 0.00 0.00 0.00 76 1013.4
20260508022621 11 156 0.0 0.0 0.00 0.00 0.00 76 1013.4
20260508022121 11 156 0.0 0.0 0.00 0.00 0.00 77 1013.4
20260508021620 11 156 0.0 0.0 0.00 0.00 0.00 77 1013.4
20260508021120 12 156 0.0 0.0 0.00 0.00 0.00 77 1013.4
20260508020620 12 156 0.0 0.0 0.00 0.00 0.00 77 1013.4
20260508020119 12 156 0.0 0.0 0.00 0.00 0.00 77 1013.4
20260508015619 12 156 0.0 0.0 0.00 0.00 0.00 77 1013.4
20260508015119 12 156 0.0 0.0 0.00 0.00 0.00 77 1013.4
20260508014619 11 156 0.0 0.0 0.00 0.00 0.00 77 1013.4
20260508014118 12 156 0.0 0.0 0.00 0.00 0.00 77 1013.4
20260508013618 12 156 0.0 0.0 0.00 0.00 0.00 77 1013.4
20260508013118 12 156 0.0 0.0 0.00 0.00 0.00 76 1013.4
20260508012617 12 156 0.0 0.0 0.00 0.00 0.00 76 1013.4
20260508012117 12 156 0.0 0.0 0.00 0.00 0.00 76 1013.4
20260508011617 12 156 0.0 0.0 0.00 0.00 0.00 76 1013.4
20260508011117 12 156 0.0 0.0 0.00 0.00 0.00 76 1013.4
20260508010616 12 156 0.0 0.0 0.00 0.00 0.00 76 1013.4
20260508010116 12 156 0.0 0.0 0.00 0.00 0.00 76 1013.4
20260508005616 12 156 0.0 0.0 0.00 0.00 0.00 76 1013.5
20260508005115 12 156 0.0 0.0 0.00 0.00 0.00 76 1013.5
20260508004615 12 156 0.0 0.0 0.00 0.00 0.00 76 1013.5
20260508004115 12 156 0.0 0.0 0.00 0.03 0.00 76 1013.5
20260508003615 12 156 0.0 0.0 0.00 0.03 0.00 76 1013.5
20260508003114 12 156 0.0 0.0 0.00 0.03 0.00 76 1013.4
20260508002614 12 156 0.0 0.0 0.00 0.03 0.00 76 1013.5
20260508002114 12 156 0.0 0.0 0.00 0.03 0.00 76 1013.5
20260508001613 12 156 0.0 0.0 0.00 0.03 0.00 76 1013.5
20260508001113 12 156 0.0 0.0 0.00 0.03 0.00 76 1013.5
20260508000613 12 156 0.0 0.0 0.00 0.03 0.00 76 1013.5
20260508000113 12 156 0.0 0.0 0.00 0.03 0.00 76 1013.5
20260507235612 12 156 0.0 0.0 0.00 0.03 0.00 76 1013.6
20260507235112 12 156 0.0 0.0 0.00 0.03 0.00 76 1013.6
20260507234612 12 156 0.0 0.0 0.00 0.03 0.00 76 1013.6
20260507234111 12 156 0.0 0.0 0.00 0.03 0.00 76 1013.6
20260507233611 12 156 0.0 0.0 0.00 0.03 0.00 76 1013.7
20260507233111 12 156 0.0 0.0 0.00 0.03 0.00 76 1013.7
20260507232612 12 216 0.0 0.0 0.00 0.03 0.00 76 1013.7
20260507232110 12 216 0.0 0.0 0.00 0.03 0.00 76 1013.7
20260507231610 12 216 0.0 0.0 0.00 0.03 0.00 76 1013.7
20260507231110 12 216 0.0 3.2 0.00 0.03 0.00 76 1013.7
20260507230609 12 174 0.0 1.6 0.00 0.03 0.00 76 1013.7
20260507230109 13 174 0.0 1.6 0.00 0.03 0.00 76 1013.7
20260507225609 13 351 0.0 4.8 0.00 0.03 0.00 76 1013.7
20260507225109 13 239 0.0 0.0 0.00 0.03 0.00 76 1013.7
20260507224608 13 239 0.0 0.0 0.00 0.03 0.00 76 1013.7
20260507224108 13 239 0.0 1.6 0.00 0.03 0.00 76 1013.7
20260507223608 13 53 0.0 3.2 0.00 0.03 0.00 75 1013.7
20260507223108 13 241 0.0 3.2 0.00 0.03 0.00 75 1013.7
20260507222607 13 196 0.0 3.2 0.00 0.03 0.00 75 1013.7
20260507222107 13 205 1.6 1.6 0.00 0.03 0.00 75 1013.7
20260507221607 13 135 0.0 1.6 0.00 0.03 0.00 75 1013.6
20260507221106 13 90 0.0 1.6 0.00 0.03 0.00 75 1013.6
20260507220606 13 90 0.0 0.0 0.00 0.03 0.00 75 1013.6
20260507220106 13 213 0.0 0.0 0.00 0.03 0.00 75 1013.5
20260507215605 13 213 0.0 0.0 0.00 0.03 0.00 75 1013.5
20260507215105 13 213 0.0 3.2 0.00 0.03 0.00 75 1013.5
20260507214605 13 317 0.0 0.0 0.00 0.03 0.00 75 1013.5
20260507214105 13 317 0.0 0.0 0.00 0.03 0.00 75 1013.4
20260507213604 13 220 0.0 0.0 0.00 0.03 0.00 75 1013.3
20260507213104 13 220 0.0 0.0 0.00 0.03 0.03 75 1013.3
20260507212604 13 220 0.0 3.2 0.00 0.03 0.03 75 1013.3
20260507212104 14 330 0.0 3.2 0.00 0.03 0.03 75 1013.2
20260507211603 14 36 0.0 0.0 0.00 0.03 0.03 75 1013.2
20260507211103 13 36 0.0 0.0 0.00 0.03 0.03 75 1013.1
20260507210603 13 36 0.0 1.6 0.00 0.03 0.03 75 1013.1
20260507205602 14 278 1.6 1.6 0.00 0.03 0.03 75 1013.2
20260507205102 14 184 0.0 1.6 0.00 0.03 0.03 74 1013.2
20260507204602 14 234 0.0 0.0 0.00 0.03 0.03 74 1013.1
20260507204101 14 234 0.0 0.0 0.00 0.03 0.03 74 1013.2
20260507203601 14 234 0.0 1.6 0.00 0.03 0.03 74 1013.1
20260507203101 14 184 0.0 1.6 0.00 0.03 0.03 74 1013.1
20260507202600 14 243 0.0 0.0 0.00 0.03 0.03 74 1013.0
20260507202100 14 243 0.0 0.0 0.00 0.03 0.03 74 1013.0
20260507201600 14 243 0.0 0.0 0.00 0.03 0.03 74 1012.9
20260507201100 15 243 0.0 0.0 0.00 0.03 0.03 74 1012.8
20260507200559 14 243 0.0 3.2 0.00 0.03 0.03 74 1012.8
20260507200059 14 132 0.0 0.0 0.00 0.03 0.03 73 1012.7
20260507195559 14 132 0.0 0.0 0.00 0.03 0.03 73 1012.6
20260507195058 14 132 0.0 0.0 0.00 0.03 0.03 73 1012.7
20260507194558 15 132 0.0 0.0 0.00 0.03 0.03 73 1012.7
20260507194058 14 132 0.0 0.0 0.00 0.03 0.03 73 1012.6
20260507193558 14 132 0.0 0.0 0.00 0.03 0.03 74 1012.5
20260507193057 14 132 0.0 0.0 0.00 0.03 0.03 74 1012.5
20260507192557 15 132 0.0 0.0 0.00 0.03 0.03 74 1012.5
20260507192057 15 132 0.0 0.0 0.00 0.03 0.03 74 1012.4
20260507191556 15 132 0.0 0.0 0.00 0.03 0.03 74 1012.4
20260507191056 15 132 0.0 0.0 0.00 0.03 0.03 74 1012.3
20260507190556 15 132 0.0 0.0 0.00 0.03 0.03 74 1012.3
20260507190056 15 158 0.0 0.0 0.00 0.03 0.03 74 1012.2
20260507185555 15 158 0.0 0.0 0.00 0.03 0.03 74 1012.2
20260507185055 15 158 0.0 0.0 0.00 0.03 0.03 74 1012.2
20260507184555 15 158 0.0 1.6 0.00 0.03 0.03 74 1012.2
20260507184054 15 46 0.0 0.0 0.00 0.03 0.03 73 1012.1
20260507183554 15 46 0.0 0.0 0.00 0.03 0.03 73 1012.1
20260507183054 15 46 0.0 0.0 0.00 0.03 0.03 73 1012.1
20260507182554 15 46 0.0 1.6 0.00 0.03 0.03 72 1012.0
20260507182053 15 161 0.0 0.0 0.00 0.03 0.03 72 1012.0
20260507181553 15 161 0.0 0.0 0.00 0.03 0.03 72 1012.0
20260507181053 15 161 0.0 0.0 0.00 0.03 0.03 71 1011.9
20260507180552 15 127 0.0 1.6 0.00 0.03 0.03 71 1011.8
20260507180052 15 216 0.0 0.0 0.00 0.03 0.03 71 1011.8
20260507175552 15 216 0.0 0.0 0.00 0.03 0.03 71 1011.8
20260507175052 15 216 0.0 1.6 0.00 0.03 0.03 71 1011.9
20260507174551 15 293 0.0 1.6 0.00 0.03 0.03 71 1011.8
20260507174051 15 99 0.0 0.0 0.00 0.03 0.03 71 1011.9
20260507173551 15 99 0.0 0.0 0.00 0.03 0.03 71 1011.8
20260507173051 15 99 0.0 0.0 0.00 0.03 0.03 71 1011.7
20260507172550 15 99 0.0 1.6 0.00 0.03 0.03 71 1011.7
20260507172050 15 154 0.0 1.6 0.00 0.03 0.03 70 1011.7
20260507171550 15 216 0.0 3.2 0.00 0.03 0.03 70 1011.7
20260507171049 15 247 0.0 0.0 0.00 0.03 0.03 69 1011.7
20260507170549 15 247 0.0 0.0 0.00 0.03 0.03 69 1011.6
20260507170049 15 247 0.0 1.6 0.00 0.03 0.03 69 1011.6
20260507165549 15 315 0.0 0.0 0.00 0.03 0.03 68 1011.4
20260507165049 15 315 0.0 0.0 0.00 0.03 0.03 68 1011.5
20260507164548 16 315 0.0 0.0 0.00 0.03 0.03 68 1011.5
20260507164048 16 315 0.0 1.6 0.00 0.03 0.03 67 1011.4
20260507163547 16 33 0.0 0.0 0.00 0.03 0.03 67 1011.4
20260507163047 16 33 0.0 6.4 0.00 0.03 0.03 66 1011.4
20260507162547 16 50 0.0 3.2 0.00 0.03 0.03 64 1011.4
20260507162047 16 28 0.0 3.2 0.00 0.03 0.03 63 1011.3
20260507161546 16 19 1.6 3.2 0.00 0.03 0.03 62 1011.3
20260507161046 16 19 0.0 4.8 0.00 0.03 0.03 62 1011.3
20260507160546 16 33 1.6 3.2 0.00 0.03 0.03 62 1011.3
20260507160045 16 22 0.0 3.2 0.00 0.03 0.03 62 1011.3
20260507155545 16 30 0.0 1.6 0.00 0.03 0.03 63 1011.2
20260507155045 16 39 0.0 4.8 0.00 0.03 0.03 62 1011.2
20260507154545 16 358 0.0 4.8 0.00 0.03 0.03 62 1011.2
20260507154044 16 23 3.2 4.8 0.00 0.15 0.03 62 1011.2
20260507153544 16 5 0.0 6.4 0.00 0.15 0.03 62 1011.1
20260507153044 16 348 0.0 6.4 0.00 0.15 0.03 63 1011.2
20260507152543 16 330 0.0 4.8 0.00 0.15 0.03 62 1011.1
20260507152043 16 26 0.0 3.2 0.00 0.15 0.03 62 1011.1
20260507151543 16 75 1.6 6.4 0.00 0.15 0.03 62 1011.1
20260507151043 16 116 1.6 4.8 0.00 0.15 0.03 61 1011.1
20260507150542 16 158 1.6 6.4 0.00 0.15 0.03 61 1011.1
20260507150043 16 163 3.2 6.4 0.00 0.15 0.03 60 1011.1
20260507145542 16 36 0.0 4.8 0.00 0.15 0.03 60 1011.1
20260507145041 16 2 1.6 4.8 0.00 0.15 0.03 60 1011.1
20260507144541 16 109 0.0 4.8 0.00 0.15 0.03 60 1011.1
20260507144041 16 150 0.0 4.8 0.00 0.15 0.03 60 1011.0
20260507143541 16 108 1.6 4.8 0.00 0.15 0.03 60 1011.0
20260507143040 16 9 0.0 4.8 0.00 0.15 0.03 60 1011.0
20260507142540 16 106 0.0 3.2 0.00 0.15 0.03 61 1011.0
20260507142040 16 104 0.0 6.4 0.00 0.15 0.03 61 1011.1
20260507141539 16 28 0.0 3.2 0.00 0.15 0.03 63 1011.1
20260507141039 15 106 0.0 3.2 0.00 0.15 0.03 64 1011.1
20260507140539 15 33 0.0 3.2 0.00 0.15 0.03 64 1011.1
20260507140039 15 171 1.6 6.4 0.00 0.15 0.03 63 1011.2
20260507135538 15 129 3.2 3.2 0.00 0.15 0.03 63 1011.2
20260507135038 15 130 0.0 0.0 0.00 0.15 0.03 63 1011.2
20260507134538 15 111 0.0 3.2 0.00 0.15 0.03 63 1011.1
20260507134037 16 140 3.2 4.8 0.00 0.15 0.03 62 1011.2
20260507133537 16 137 3.2 4.8 0.00 0.15 0.03 62 1011.1
20260507133037 16 45 0.0 6.4 0.00 0.15 0.03 62 1011.1
20260507132537 16 163 4.8 6.4 0.00 0.15 0.03 62 1011.1
20260507132036 16 106 1.6 4.8 0.00 0.15 0.03 62 1011.1
20260507131536 16 85 1.6 4.8 0.00 0.15 0.03 62 1011.1
20260507131036 16 178 0.0 0.0 0.00 0.15 0.03 63 1011.0
20260507130536 16 178 0.0 3.2 0.00 0.15 0.03 64 1011.0
20260507130035 16 36 1.6 6.4 0.00 0.15 0.03 63 1010.9
20260507125535 16 115 0.0 3.2 0.00 0.15 0.03 63 1010.9
20260507125035 16 21 1.6 6.4 0.00 0.15 0.03 63 1010.8
20260507124534 16 36 0.0 4.8 0.00 0.15 0.03 63 1010.8
20260507124034 16 208 0.0 6.4 0.00 0.15 0.03 63 1010.9
20260507123534 16 106 0.0 3.2 0.00 0.15 0.03 63 1010.9
20260507123034 16 14 0.0 3.2 0.00 0.15 0.03 62 1010.8
20260507122533 16 5 3.2 8.0 0.00 0.15 0.03 62 1010.8
20260507122033 16 127 4.8 8.0 0.00 0.15 0.03 62 1010.7
20260507121533 16 26 0.0 4.8 0.00 0.15 0.03 63 1010.7
20260507121032 16 125 3.2 11.3 0.00 0.15 0.03 63 1010.6
20260507120532 16 30 0.0 0.0 0.00 0.15 0.03 64 1010.6
20260507120032 15 112 0.0 6.4 0.00 0.15 0.03 64 1010.6
20260507115532 15 39 1.6 6.4 0.00 0.15 0.03 65 1010.7
20260507115031 15 164 6.4 6.4 0.00 0.15 0.03 66 1010.7
20260507114531 15 101 0.0 4.8 0.00 0.15 0.03 67 1010.7
20260507114031 15 91 1.6 4.8 0.00 0.15 0.03 67 1010.7